Regional Weather Roundup
Issued by NWS New Orleans/Baton Rouge, LA

Home | Current Version | Previous Version | Text Only | Print | Product List | Glossary On
Versions: 1 2 3 4 5 6 7 8 9 10 11 12 13 14 15 16 17 18 19 20 21 22 23 24 25 26 27 28 29 30 31 32 33 34 35 36 37 38 39 40 41 42 43 44 45 46 47 48 49 50
295
ASUS44 KLIX 071310
RWRLIX
NEW ORLEANS REGIONAL WEATHER ROUNDUP
NATIONAL WEATHER SERVICE NEW ORLEANS LA
700 AM CST SUN FEB 07 2016

NOTE: "FAIR" INDICATES FEW OR NO CLOUDS BELOW 12,000 FEET WITH NO
      SIGNIFICANT WEATHER AND/OR OBSTRUCTIONS TO VISIBILITY.
      SKY/WX - SKY CONDITION AND SIGNIFICANT WEATHER.
      TMP - AIR TEMPERATURE.     DP    - DEWPOINT TEMPERATURE.
      RH  - RELATIVE HUMIDITY.   PRES  - PRESSURE.
      HI  - HEAT INDEX.          WCI   - WIND CHILL INDEX.

*  THESE STATIONS ARE NOT NWS OR FAA STATIONS AND ARE NOT UNDER
   NWS QUALITY CONTROL.

LAZ038-040-048-061>063-065>067-069-071400-
SOUTHEAST LOUISIANA

CITY           SKY/WX    TMP DP  RH WIND       PRES   REMARKS
N.O. AUDUBON   NOT AVBL
N.O. INTL ARPT CLEAR     40  33  76 CALM      30.29S
N.O. LAKEFRONT CLEAR     45  33  63 N9        30.30S
N.O. DOWNTOWN*   N/A     45  30  57 MISG      30.30S
RESERVE*         N/A     38  31  74 CALM      30.30F
SLIDELL        CLEAR     29  27  92 CALM      30.29S
BATON ROUGE    CLEAR     31  28  89 CALM      30.30S
BOOTHVILLE     CLEAR     46  37  71 N5        30.30R
BELLE CHASSE   CLEAR     31  29  92 CALM      30.30S
BOGALUSA*        N/A     30  27  88 CALM      30.31S
GALLIANO*      SUNNY     36  34  92 CALM      30.31R
NEW ROADS*       N/A     32  32  99 CALM      30.31R
GONZALES*        N/A     32  30  91 CALM      30.30S
HAMMOND*       CLEAR     32  28  86 CALM      30.30S
HOUMA*         CLEAR     36  30  80 CALM      30.31R
PORT FOURCHON* SUNNY     43  37  81 N6        30.31R

$$

MSZ070-080>082-071400-
SOUTHERN MISSISSIPPI

CITY           SKY/WX    TMP DP  RH WIND       PRES   REMARKS
MCCOMB         CLEAR     29  26  89 CALM      30.28S
GULFPORT       CLEAR     30  26  85 CALM      30.29R
BILOXI         CLEAR     37  26  64 N2        30.28S
PASCAGOULA     PTCLDY    29  28  96 CALM      30.29S
STENNIS ARPT*  CLEAR     28  25  86 CALM      30.30

$$

COASTAL OBSERVATIONS
LAKE AND NEARSHORE STATIONS

STATION/POSITION TIME  TEMP    WIND        PRES    WAVE
                       AIR SEA DIR/SP/G            HT/PER
                 (UTC) (F)     (DEG/KT/KT) (MB)    (FT/S)
PASCAGOULA       1200   37     330/  7/  9 1025.2
WAVELAND YACHT   1200   39 52  330/  5/  6 1025.4
GRAND ISLE       1200   49 54  360/  7/  8 1025.6
NEW CANAL        1200   49 53   10/  7/  8 1024.9
SHELL BEACH      1200   48 53   20/ 10/ 12 1025.0

OFFSHORE STATIONS

STATION/POSITION TIME  TEMP    WIND        PRES    WAVE
                       AIR SEA DIR/SP/G            HT/PER
                 (UTC) (F)     (DEG/KT/KT) (MB)    (FT/S)

$$





USA.gov is the U.S. government's official web portal to all federal, state and local government web resources and services.